Weather History for KLOM - February, 2013

Change the Weather History Date:

Saturday, February 16, 2013

  Actual Average (KPHL) Record (KPHL)
Temperature  
Mean Temperature 34 °F 36 °F  
Max Temperature 37 °F 44 °F 73 °F (1954)
Min Temperature 32 °F 28 °F 2 °F (1888)
Degree Days  
Heating Degree Days 30 29  
Month to date heating degree days 487  
Since 1 July heating degree days 3150  
Cooling Degree Days 0 0  
Month to date cooling degree days 0  
Year to date cooling degree days 0  
Moisture  
Dew Point 27 °F    
Average Humidity 75    
Maximum Humidity 100    
Minimum Humidity 48    
Precipitation  
Precipitation 0.02 in 0.09 in 1.84 in (1873)
Month to date precipitation 1.51  
Year to date precipitation 4.54  
Snow  
Snow 0.00 in 0.30 in 16.00 in (2003)
Month to date snowfall 5.5  
Since 1 July snowfall 15.7  
Snow Depth -    
Sea Level Pressure  
Sea Level Pressure 29.89 in    
Wind  
Wind Speed 4 mph (NNW)    
Max Wind Speed 13 mph    
Max Gust Speed 20 mph    
Visibility 8 miles    
Events      
T = Trace of Precipitation, MM = Missing Value Source: NWS Daily Summary

Daily Weather History Graph

Daily Weather History Graph

Search for Another Location

Airport or City:

Trip Planner

Search our weather history database for the weather conditions in past years. The results will help you decide how hot, cold, wet, or windy it might be!

Date:

Astronomy

Feb. 16, 2013 Rise Set
Actual Time 6:52 AM EST 5:38 PM EST
Civil Twilight 6:24 AM EST 6:06 PM EST
Nautical Twilight 5:53 AM EST 6:37 PM EST
Astronomical Twilight 5:21 AM EST 7:09 PM EST
Moon 10:03 AM EST (2/16) No Moon Set
Length of Visible Light 11h 41m
Length of Day
10h 45m
Waxing Crescent, 39% of the Moon is Illuminated
Feb 16
Waxing Crescent
Feb 17
First Quarter
Feb 25
Full
Mar 4
Last Quarter
Mar 11
New

Hourly Weather History & Observations

Time (EST) Temp. Windchill Dew Point Humidity Pressure Visibility Wind Dir Wind Speed Gust Speed Precip Events Conditions
12:15 AM 35.6 °F 31.7 °F 33.8 °F 93% 29.98 in 4.0 mi NW 4.6 mph - N/A   Overcast
12:35 AM 35.6 °F 32.8 °F 33.8 °F 93% 29.98 in 3.0 mi NW 3.5 mph - 0.01 in   Overcast
12:55 AM 35.6 °F - 33.8 °F 93% 29.97 in 4.0 mi Calm Calm - 0.01 in   Overcast
1:15 AM 35.6 °F 32.8 °F 33.8 °F 93% 29.97 in 4.0 mi NW 3.5 mph - 0.01 in   Overcast
1:35 AM 35.6 °F 32.8 °F 33.8 °F 93% 29.97 in 4.0 mi WNW 3.5 mph - 0.01 in   Overcast
1:55 AM 35.6 °F 31.7 °F 33.8 °F 93% 29.97 in 4.0 mi WNW 4.6 mph - 0.01 in   Overcast
2:15 AM 35.6 °F 32.8 °F 33.8 °F 93% 29.96 in 5.0 mi WNW 3.5 mph - N/A   Overcast
2:35 AM 35.6 °F - 33.8 °F 93% 29.95 in 5.0 mi Calm Calm - N/A   Overcast
2:55 AM 33.8 °F - 33.8 °F 100% 29.94 in 4.0 mi Calm Calm - N/A   Overcast
3:15 AM 35.6 °F - 33.8 °F 93% 29.94 in 4.0 mi Calm Calm - N/A   Overcast
3:35 AM 35.6 °F - 33.8 °F 93% 29.93 in 5.0 mi Calm Calm - N/A   Overcast
3:55 AM 35.6 °F - 33.8 °F 93% 29.94 in 5.0 mi Calm Calm - N/A   Overcast
4:15 AM 35.6 °F - 33.8 °F 93% 29.94 in 7.0 mi Calm Calm - N/A   Overcast
4:35 AM 35.6 °F 32.8 °F 33.8 °F 93% 29.95 in 5.0 mi NW 3.5 mph - N/A   Overcast
4:55 AM 35.6 °F - 33.8 °F 93% 29.94 in 7.0 mi Calm Calm - N/A   Overcast
5:15 AM 35.6 °F 32.8 °F 33.8 °F 93% 29.95 in 7.0 mi WNW 3.5 mph - N/A   Overcast
5:35 AM 35.6 °F - 33.8 °F 93% 29.94 in 7.0 mi Calm Calm - N/A   Mostly Cloudy
5:55 AM 35.6 °F - 33.8 °F 93% 29.93 in 7.0 mi Calm Calm - N/A   Scattered Clouds
6:35 AM 35.6 °F - 33.8 °F 93% 29.94 in 5.0 mi Calm Calm - N/A   Mostly Cloudy
6:55 AM 35.6 °F 32.8 °F 33.8 °F 93% 29.94 in 7.0 mi North 3.5 mph - N/A   Scattered Clouds
7:15 AM 35.6 °F 30.7 °F 32.0 °F 87% 29.94 in 10.0 mi North 5.8 mph - N/A   Clear
7:35 AM 35.6 °F - 32.0 °F 87% 29.95 in 10.0 mi Calm Calm - N/A   Clear
7:55 AM 33.8 °F 28.6 °F 32.0 °F 93% 29.96 in 10.0 mi North 5.8 mph - N/A   Clear
8:15 AM 33.8 °F 28.6 °F 28.4 °F 81% 29.96 in 10.0 mi North 5.8 mph - N/A   Clear
8:35 AM 33.8 °F 27.7 °F 28.4 °F 81% 29.96 in 10.0 mi NNE 6.9 mph - N/A   Clear
8:55 AM 35.6 °F 30.7 °F 30.2 °F 81% 29.95 in 10.0 mi NNE 5.8 mph - N/A   Clear
9:15 AM 33.8 °F 27.7 °F 28.4 °F 81% 29.95 in 10.0 mi NNE 6.9 mph - N/A   Clear
9:35 AM 35.6 °F 30.7 °F 28.4 °F 75% 29.95 in 10.0 mi NE 5.8 mph - N/A   Clear
9:55 AM 35.6 °F 29.9 °F 28.4 °F 75% 29.95 in 10.0 mi North 6.9 mph - N/A   Clear
10:15 AM 35.6 °F 29.9 °F 26.6 °F 70% 29.94 in 10.0 mi NNE 6.9 mph - N/A   Clear
10:35 AM 35.6 °F 29.9 °F 26.6 °F 70% 29.94 in 10.0 mi North 6.9 mph - N/A   Clear
1:15 PM 37.4 °F 32.8 °F 28.4 °F 70% 29.88 in 10.0 mi NNW 5.8 mph - N/A   Clear
1:35 PM 37.4 °F 32.8 °F 28.4 °F 70% 29.88 in 10.0 mi NNE 5.8 mph - N/A   Scattered Clouds
1:55 PM 37.4 °F 32.1 °F 28.4 °F 70% 29.86 in 10.0 mi North 6.9 mph - N/A   Clear
2:15 PM 37.4 °F - 28.4 °F 70% 29.86 in 10.0 mi Calm Calm - N/A   Scattered Clouds
2:35 PM 37.4 °F 34.9 °F 28.4 °F 70% 29.86 in 10.0 mi North 3.5 mph - N/A   Mostly Cloudy
2:55 PM 37.4 °F 32.8 °F 26.6 °F 65% 29.87 in 10.0 mi NNW 5.8 mph - N/A   Mostly Cloudy
3:15 PM 37.4 °F 32.1 °F 26.6 °F 65% 29.86 in 10.0 mi NNW 6.9 mph - N/A   Scattered Clouds
3:35 PM 35.6 °F 32.8 °F 26.6 °F 70% 29.86 in 10.0 mi North 3.5 mph - N/A   Scattered Clouds
3:55 PM 35.6 °F 31.7 °F 28.4 °F 75% 29.85 in 10.0 mi NNW 4.6 mph - N/A   Mostly Cloudy
4:15 PM 35.6 °F 29.2 °F 26.6 °F 70% 29.85 in 10.0 mi North 8.1 mph - N/A   Scattered Clouds
4:35 PM 35.6 °F 31.7 °F 26.6 °F 70% 29.85 in 10.0 mi NNE 4.6 mph - N/A   Scattered Clouds
4:55 PM 35.6 °F 29.2 °F 24.8 °F 65% 29.85 in 10.0 mi North 8.1 mph - N/A   Clear
5:15 PM 35.6 °F 29.2 °F 23.0 °F 60% 29.85 in 10.0 mi NNW 8.1 mph - N/A   Clear
5:35 PM 33.8 °F 28.6 °F 23.0 °F 65% 29.85 in 10.0 mi NNW 5.8 mph - N/A   Clear
5:55 PM 33.8 °F 29.6 °F 23.0 °F 65% 29.86 in 10.0 mi NNW 4.6 mph - N/A   Clear
6:15 PM 33.8 °F 28.6 °F 23.0 °F 65% 29.85 in 10.0 mi NNW 5.8 mph - N/A   Clear
6:35 PM 33.8 °F 28.6 °F 23.0 °F 65% 29.85 in 10.0 mi North 5.8 mph - N/A   Clear
6:55 PM 33.8 °F 27.7 °F 21.2 °F 60% 29.84 in 10.0 mi NNW 6.9 mph - N/A   Clear
7:15 PM 33.8 °F 28.6 °F 21.2 °F 60% 29.83 in 10.0 mi North 5.8 mph - N/A   Clear
7:35 PM 33.8 °F 28.6 °F 21.2 °F 60% 29.84 in 10.0 mi NNW 5.8 mph - N/A   Clear
7:55 PM 33.8 °F 27.7 °F 21.2 °F 60% 29.83 in 10.0 mi North 6.9 mph - N/A   Clear
8:15 PM 33.8 °F 25.8 °F 19.4 °F 56% 29.82 in 10.0 mi North 10.4 mph - N/A   Clear
8:35 PM 33.8 °F 25.8 °F 19.4 °F 56% 29.83 in 10.0 mi North 10.4 mph - N/A   Clear
8:55 PM 32.0 °F 26.4 °F 17.6 °F 55% 29.83 in 10.0 mi North 5.8 mph - N/A   Clear
9:15 PM 32.0 °F 24.8 °F 17.6 °F 55% 29.83 in 10.0 mi North 8.1 mph - N/A   Clear
9:35 PM 32.0 °F 28.7 °F 17.6 °F 55% 29.82 in 10.0 mi North 3.5 mph - N/A   Scattered Clouds
9:55 PM 32.0 °F 24.8 °F 17.6 °F 55% 29.80 in 10.0 mi North 8.1 mph - N/A   Clear
10:15 PM 32.0 °F 25.6 °F 17.6 °F 55% 29.81 in 10.0 mi North 6.9 mph 17.3 mph N/A   Clear
10:35 PM 32.0 °F 25.6 °F 17.6 °F 55% 29.80 in 10.0 mi NNW 6.9 mph - N/A   Clear
10:55 PM 32.0 °F 25.6 °F 17.6 °F 55% 29.79 in 10.0 mi North 6.9 mph 16.1 mph N/A   Clear
11:15 PM 32.0 °F 23.0 °F 17.6 °F 55% 29.78 in 10.0 mi NNW 11.5 mph 17.3 mph N/A   Clear
11:35 PM 32.0 °F 22.5 °F 14.0 °F 48% 29.77 in 10.0 mi NNW 12.7 mph 19.6 mph N/A   Clear
11:55 PM 32.0 °F 25.6 °F 14.0 °F 48% 29.77 in 10.0 mi NNW 6.9 mph - N/A   Clear